Location: Clanezzo
(45.7500°N, 9.6000°E)
Time: 16:44:20
(UTC+00:00)

EO-79 - Pass Details

Date: 09 July 2022
Orbit: 588 x 603 km, 98.0° (Epoch: 18 August)

Event Time Altitude Azimuth Distance (km) Brightness Sun altitude
Rises 00:40:16 0° 19° (NNE) 2,864 ? -19.9°
Reaches altitude 10° 00:42:33 10° 27° (NNE) 1,958 ? -19.7°
Maximum altitude 00:46:36 42° 99° (E) 866 ? -19.5°
Enters shadow 00:48:06 30° 146° (SE) 1,082 ? -19.4°
